Wind_Speed
12 14 16 18 19 21 23 24 25 26 26 27 29 29 30 31 32 32 32 33 34 35 35 35 34 34 34 34 35 36 37 37 37 37 37 38 38 38 38 39 39 40 42 42
10 11 13 15 17 19 21 22 23 24 25 26 27 28 29 30 31 32 32 33 33 33 34 34 34 34 34 34 35 35 36 37 37 37 37 37 37 37 37 37 38 39 40 41
7 8 10 12 13 15 18 19 20 22 23 24 25 26 27 28 30 30 31 32 33 33 33 34 34 34 34 34 34 34 35 36 37 37 36 37 37 36 36 37 38 38 39 39
6 6 7 9 10 12 14 15 17 19 21 22 24 25 25 26 28 29 30 31 32 33 34 35 34 34 34 34 34 34 35 35 35 36 36 36 36 37 37 38 38 38 39 40
4 5 6 6 7 9 10 12 14 16 18 20 22 24 23 25 26 27 28 30 31 32 33 33 33 33 33 34 34 34 34 34 35 35 35 36 36 36 37 37 37 38 38 39
3 4 4 5 6 7 9 10 12 13 15 17 18 21 22 23 24 25 26 28 30 31 32 32 33 33 33 33 33 33 33 33 34 34 35 35 35 35 36 37 37 37 38 38
3 4 4 5 6 7 8 9 11 12 14 15 16 18 19 20 22 24 25 27 28 29 30 31 32 32 32 32 32 32 32 32 32 33 33 34 34 35 35 36 36 36 37 38
3 4 5 6 7 7 8 9 10 11 12 13 14 15 16 18 20 22 24 25 27 28 29 30 30 31 32 31 32 31 31 31 31 30 30 31 32 33 34 34 35 36 36 38
3 4 5 6 6 7 8 9 10 11 11 12 13 14 15 17 18 20 21 23 24 25 26 28 29 29 30 29 30 30 30 30 30 29 29 30 31 32 33 33 33 34 35 36
5 5 5 5 6 6 8 9 10 11 12 12 12 12 14 15 17 18 19 20 21 23 24 26 27 27 27 28 28 29 29 30 30 30 30 30 31 31 32 33 33 33 33 34
6 6 6 6 7 8 8 10 11 11 12 12 12 12 13 14 15 16 18 19 20 21 22 24 25 26 26 27 27 28 29 29 29 30 30 31 31 31 31 32 32 32 33 33
6 6 7 7 8 9 9 10 11 11 11 12 14 14 14 14 15 17 18 19 20 20 21 22 23 24 25 26 27 27 28 28 28 28 28 29 30 30 30 30 31 32 33 33
6 7 7 7 8 9 10 10 11 12 12 13 14 14 15 16 16 18 18 19 19 20 21 22 22 23 24 25 26 27 27 27 27 28 28 28 29 29 29 30 30 31 31 31
8 8 8 9 9 10 10 10 11 13 13 14 14 15 16 17 17 18 18 18 19 20 20 20 21 22 23 23 24 25 25 26 27 27 27 28 28 28 28 29 29 29 29 29
10 10 10 10 11 11 11 12 13 13 14 15 15 16 17 17 17 17 18 18 19 19 19 19 20 20 20 20 21 22 23 24 25 26 26 27 28 28 28 28 29 29 29 29
12 12 12 13 13 12 13 13 14 14 15 16 16 17 18 18 18 18 18 18 19 19 19 20 20 20 20 20 20 21 21 22 23 24 25 26 27 27 27 27 28 28 29 29
15 15 15 15 15 15 15 15 16 16 17 18 18 18 19 18 18 19 19 19 19 19 19 19 19 19 19 20 21 21 21 21 22 23 23 24 25 26 27 27 27 28 28 29
17 18 18 18 18 18 17 17 18 18 18 18 19 19 19 19 19 19 19 19 19 19 19 19 19 19 19 20 20 21 21 22 22 23 24 25 25 26 26 27 27 28 29 29
19 19 20 20 20 20 19 19 19 19 19 19 20 21 20 20 20 20 19 19 19 19 19 19 20 20 20 21 22 22 22 22 23 23 24 25 25 26 26 26 27 28 29 30
21 21 21 22 23 22 21 21 21 21 21 21 22 21 21 21 20 19 19 19 20 20 20 20 20 21 21 21 22 23 23 24 24 24 25 26 27 27 28 28 29 29 30 31
23 23 23 23 24 23 22 23 23 23 23 23 22 22 22 21 21 20 20 21 22 22 21 21 21 21 21 22 23 23 24 25 26 27 27 28 28 29 29 30 30 31 32 32
25 25 25 25 26 25 25 25 24 24 24 24 24 23 23 22 22 22 22 22 22 22 23 23 22 23 23 24 25 25 27 28 28 29 29 29 30 30 31 31 32 33 34 34
27 27 28 28 27 27 27 28 27 27 26 26 26 25 25 24 23 23 23 23 23 23 23 23 24 24 26 27 28 28 29 30 30 30 31 31 32 32 33 33 34 35 35 36
29 30 30 30 29 29 30 29 29 29 28 27 27 26 26 25 24 23 23 23 23 24 24 24 25 26 27 28 29 30 31 31 31 32 32 33 33 34 35 36 36 36 37 37
29 31 31 31 30 31 31 30 30 30 29 28 28 28 27 27 25 25 24 25 25 25 25 26 27 28 29 30 30 31 32 32 32 32 33 34 34 35 36 37 38 38 38 39
30 31 33 33 32 33 31 31 31 30 29 29 29 28 28 29 28 27 27 27 27 27 28 28 29 29 30 31 32 33 33 33 33 34 35 35 36 37 37 38 38 39 40 39
Wind_Direction
197 205 210 216 219 223 225 228 231 234 235 237 238 239 240 240 240 241 243 244 245 247 249 252 254 256 258 260 261 263 263 264 264 266 268 269 269 269 269 270 271 270 270 269
193 202 209 216 222 226 227 230 234 237 237 239 240 241 241 242 243 243 244 246 248 250 251 253 255 257 259 261 263 264 264 265 266 268 269 269 268 268 269 270 272 272 272 270
198 206 211 216 222 227 229 232 236 238 239 239 240 242 243 244 245 246 246 248 250 252 253 255 257 258 260 261 263 265 265 266 267 268 268 268 267 268 270 271 272 273 272 272
198 205 212 217 223 225 228 234 238 241 241 241 243 245 244 246 247 248 249 250 252 253 255 257 258 259 260 261 264 265 266 267 268 268 268 269 269 270 271 272 273 274 274 273
201 207 216 222 225 227 235 239 242 245 247 247 247 249 246 248 250 251 252 252 253 255 256 257 258 259 261 263 264 266 267 268 268 269 269 269 270 272 272 274 274 275 275 275
219 221 227 234 237 238 243 245 247 249 249 250 251 253 252 250 252 254 254 255 255 255 256 257 258 260 262 263 264 266 267 268 268 269 270 270 270 272 273 274 275 276 276 277
247 258 257 251 249 247 250 251 253 256 256 258 257 258 258 255 253 255 258 259 258 257 258 259 260 262 263 264 265 266 267 268 269 270 270 271 272 273 275 275 276 277 277 277
277 275 272 265 259 254 251 251 253 258 261 262 260 259 261 260 259 258 260 260 260 260 260 260 261 263 264 265 265 265 267 269 271 271 273 274 275 275 276 277 278 278 279 278
290 284 279 271 266 260 253 254 256 261 263 265 263 262 262 262 262 262 262 262 260 260 261 261 262 263 263 263 264 264 267 270 271 272 274 276 276 277 278 280 280 280 280 280
301 295 287 277 267 265 267 269 267 268 273 274 268 268 268 265 266 267 265 264 262 263 264 265 264 264 263 264 264 265 267 269 271 272 274 276 279 280 281 281 281 282 282 282
297 296 293 288 285 282 278 278 278 277 277 278 277 277 274 272 268 267 266 265 265 265 266 266 264 264 264 264 266 268 270 271 272 273 275 276 278 281 282 282 282 282 283 282
298 294 291 290 289 287 285 284 282 280 280 281 283 284 281 278 273 271 270 269 269 269 269 269 268 266 266 266 267 269 271 271 272 273 275 276 278 280 281 282 283 284 284 283
298 295 294 291 291 291 290 287 286 284 284 284 285 285 284 281 279 278 275 273 272 272 272 272 270 269 269 269 269 269 271 272 273 274 275 278 279 281 282 284 285 287 287 286
292 291 295 297 297 296 294 291 289 286 285 286 287 285 285 284 284 284 281 278 276 276 275 274 271 270 271 273 272 272 272 273 273 275 277 278 280 281 283 285 287 289 289 289
288 287 290 291 291 293 296 295 291 289 288 288 286 286 287 287 286 285 284 282 280 279 277 275 273 272 273 275 276 276 277 277 277 277 278 280 281 282 284 286 287 288 289 290
287 285 286 287 285 287 292 293 292 291 289 288 286 286 286 287 288 288 287 285 281 279 279 276 273 273 274 276 278 280 281 282 282 283 282 282 283 283 285 286 287 288 289 291
288 286 284 282 283 286 289 290 290 290 289 288 287 286 286 286 287 287 288 289 285 281 280 278 276 274 275 277 278 280 282 283 284 285 286 285 284 285 286 287 287 288 290 291
289 287 286 285 283 284 289 288 287 288 290 289 288 288 288 287 287 287 288 289 286 282 280 279 279 278 278 279 280 282 283 284 284 285 286 286 285 285 287 288 288 288 290 291
290 288 287 285 284 285 286 286 287 287 288 288 288 289 290 290 288 286 287 285 283 281 281 279 279 280 281 282 283 284 284 285 286 286 287 287 287 287 287 289 291 291 291 291
288 288 287 286 285 286 286 285 286 287 286 287 289 289 289 288 286 283 281 280 281 282 281 280 280 281 282 283 284 285 285 286 286 287 288 288 288 289 289 290 291 292 291 291
285 286 287 286 286 287 285 285 285 285 287 287 288 289 289 287 284 280 279 279 279 280 281 280 280 281 283 284 285 286 287 287 287 287 288 288 289 289 289 290 291 291 292 291
283 284 285 285 286 285 283 282 282 283 284 286 287 288 287 286 283 280 278 277 279 280 281 281 281 282 283 284 285 286 286 287 287 288 289 289 289 289 290 290 291 292 292 292
282 283 283 283 284 284 282 280 279 279 281 283 284 285 286 285 284 281 278 277 277 280 281 282 282 283 284 284 285 285 285 286 287 287 288 289 290 290 290 291 292 293 293 292
280 280 280 281 282 280 279 279 278 278 279 280 282 284 285 284 283 282 279 277 278 279 281 282 283 284 284 284 285 286 286 286 286 287 288 289 291 291 292 292 293 294 294 293
283 281 280 280 280 277 277 277 277 277 277 277 278 281 282 281 281 281 279 276 277 280 282 283 284 285 286 286 286 287 287 287 287 287 289 289 290 291 293 294 295 295 294 293
283 281 279 280 280 279 279 277 275 274 275 276 277 278 279 280 280 280 279 278 277 279 282 284 286 287 288 288 288 287 287 287 287 288 289 289 290 292 294 294 295 295 296 295
Height
5691 5694 5696 5699 5702 5706 5708 5711 5714 5717 5720 5723 5726 5729 5732 5734 5736 5739 5741 5744 5746 5748 5749 5751 5753 5754 5755 5756 5756 5756 5756 5757 5757 5757 5757 5756 5756 5755 5755 5754 5753 5752 5751 5751
5692 5694 5696 5698 5700 5703 5706 5709 5711 5714 5716 5719 5721 5724 5726 5728 5731 5733 5736 5738 5739 5741 5742 5744 5746 5747 5748 5748 5748 5748 5748 5748 5748 5748 5748 5747 5747 5747 5746 5745 5744 5743 5742 5741
5692 5694 5695 5697 5699 5701 5703 5706 5708 5711 5713 5714 5717 5720 5722 5723 5725 5728 5730 5731 5733 5735 5736 5737 5739 5739 5740 5740 5740 5740 5740 5740 5740 5739 5739 5739 5738 5738 5737 5736 5735 5733 5732 5730
5693 5694 5695 5696 5698 5699 5701 5703 5705 5707 5709 5711 5713 5715 5718 5718 5720 5722 5724 5725 5727 5728 5729 5730 5731 5732 5732 5732 5732 5732 5732 5732 5731 5731 5730 5730 5730 5729 5728 5727 5725 5724 5722 5720
5693 5694 5695 5696 5697 5698 5700 5701 5703 5704 5706 5708 5709 5710 5714 5713 5715 5716 5718 5719 5720 5721 5722 5723 5723 5724 5724 5725 5725 5724 5724 5723 5723 5722 5722 5721 5720 5720 5719 5717 5716 5714 5712 5710
5694 5694 5695 5696 5696 5697 5698 5700 5700 5701 5703 5705 5706 5706 5708 5709 5710 5710 5711 5712 5713 5714 5715 5715 5716 5716 5717 5717 5717 5716 5716 5715 5715 5714 5713 5712 5712 5711 5710 5708 5706 5704 5702 5700
5694 5694 5694 5695 5695 5696 5697 5698 5699 5699 5700 5701 5701 5702 5704 5704 5704 5704 5705 5705 5706 5707 5707 5707 5708 5709 5709 5709 5709 5708 5708 5708 5707 5706 5705 5704 5703 5702 5700 5699 5697 5695 5693 5691
5693 5694 5694 5694 5694 5694 5694 5696 5697 5697 5697 5698 5697 5697 5699 5698 5698 5698 5698 5699 5699 5699 5700 5700 5701 5701 5701 5701 5701 5701 5700 5700 5699 5698 5697 5695 5694 5693 5692 5690 5688 5686 5684 5681
5693 5693 5693 5693 5692 5693 5693 5693 5694 5694 5694 5694 5694 5694 5694 5693 5693 5692 5692 5692 5692 5693 5693 5693 5693 5693 5693 5694 5693 5693 5693 5692 5691 5690 5689 5688 5686 5685 5683 5681 5679 5677 5674 5672
5692 5692 5692 5691 5691 5691 5691 5691 5691 5691 5690 5690 5690 5690 5690 5688 5688 5687 5687 5687 5686 5686 5686 5686 5686 5686 5686 5686 5686 5685 5685 5684 5683 5682 5681 5680 5678 5676 5674 5672 5670 5668 5665 5663
5691 5691 5691 5690 5689 5689 5689 5689 5688 5687 5687 5686 5686 5688 5686 5684 5683 5682 5682 5681 5680 5680 5680 5679 5679 5679 5679 5678 5678 5678 5677 5676 5676 5674 5673 5672 5670 5669 5666 5664 5662 5659 5657 5654
5689 5689 5688 5688 5687 5686 5686 5685 5685 5685 5684 5682 5682 5685 5681 5679 5678 5677 5676 5675 5674 5674 5673 5672 5672 5672 5671 5671 5671 5670 5670 5669 5668 5667 5665 5664 5662 5661 5659 5656 5654 5651 5648 5646
5687 5687 5686 5686 5687 5685 5683 5682 5681 5681 5680 5678 5678 5680 5676 5674 5673 5672 5671 5670 5669 5668 5667 5666 5665 5665 5664 5664 5663 5663 5662 5661 5660 5659 5658 5657 5655 5653 5651 5648 5646 5643 5640 5638
5685 5685 5685 5684 5682 5681 5680 5680 5678 5677 5675 5675 5674 5673 5672 5669 5668 5666 5665 5664 5663 5662 5660 5660 5659 5658 5657 5657 5656 5655 5655 5654 5653 5652 5650 5649 5647 5645 5643 5641 5638 5636 5633 5630
5682 5682 5681 5680 5679 5678 5677 5676 5675 5673 5672 5671 5670 5668 5666 5664 5662 5661 5659 5658 5657 5655 5654 5653 5652 5652 5651 5650 5650 5649 5648 5646 5645 5644 5643 5641 5640 5638 5635 5633 5631 5628 5625 5622
5679 5679 5678 5677 5675 5674 5673 5672 5670 5669 5667 5665 5664 5663 5661 5659 5657 5656 5654 5652 5651 5649 5648 5647 5646 5645 5645 5644 5643 5642 5641 5640 5638 5637 5635 5634 5632 5630 5628 5625 5623 5620 5618 5615
5675 5674 5673 5673 5671 5670 5670 5668 5666 5664 5662 5660 5659 5658 5656 5654 5652 5650 5648 5646 5645 5643 5642 5641 5640 5639 5639 5638 5637 5636 5635 5633 5632 5630 5629 5627 5625 5623 5620 5618 5615 5613 5610 5607
5671 5669 5668 5667 5667 5666 5667 5663 5660 5659 5657 5655 5653 5651 5650 5648 5646 5644 5643 5641 5639 5638 5636 5635 5634 5633 5632 5632 5631 5629 5628 5627 5625 5624 5622 5620 5618 5615 5613 5611 5608 5605 5602 5600
5665 5664 5663 5661 5660 5659 5660 5657 5654 5653 5652 5649 5647 5646 5644 5642 5640 5639 5637 5635 5633 5632 5631 5629 5628 5627 5626 5625 5624 5623 5621 5620 5618 5617 5615 5613 5610 5608 5606 5603 5600 5597 5595 5592
5660 5658 5657 5655 5653 5653 5654 5651 5648 5648 5646 5644 5641 5639 5638 5636 5634 5634 5631 5629 5628 5626 5625 5623 5622 5621 5620 5619 5617 5616 5615 5613 5611 5610 5607 5605 5603 5601 5598 5595 5593 5590 5586 5583
5653 5652 5650 5648 5646 5646 5646 5643 5642 5642 5640 5637 5634 5633 5631 5629 5628 5627 5624 5623 5621 5620 5619 5617 5616 5615 5613 5612 5610 5609 5607 5606 5604 5602 5600 5597 5595 5593 5590 5587 5584 5581 5578 5575
5645 5644 5643 5641 5639 5641 5637 5635 5634 5634 5631 5629 5627 5626 5624 5622 5621 5619 5618 5616 5615 5613 5612 5611 5609 5608 5606 5604 5603 5601 5600 5598 5596 5594 5592 5589 5587 5584 5581 5578 5575 5572 5569 5565
5637 5636 5634 5634 5634 5632 5629 5627 5626 5624 5623 5622 5620 5619 5617 5615 5614 5612 5611 5609 5608 5606 5605 5603 5602 5600 5599 5597 5595 5593 5591 5589 5587 5585 5583 5580 5578 5575 5572 5569 5566 5562 5558 5555
5629 5627 5625 5624 5624 5622 5620 5618 5617 5616 5614 5613 5612 5611 5609 5607 5606 5605 5603 5602 5600 5599 5598 5596 5594 5593 5591 5588 5586 5585 5582 5580 5578 5576 5573 5571 5568 5565 5562 5558 5555 5551 5547 5544
5619 5616 5614 5614 5614 5612 5611 5609 5608 5607 5606 5605 5604 5602 5601 5599 5598 5596 5595 5594 5593 5591 5590 5588 5586 5584 5582 5580 5578 5575 5573 5571 5569 5566 5564 5561 5558 5555 5551 5547 5543 5539 5535 5531
5610 5606 5604 5604 5603 5601 5602 5600 5598 5597 5597 5596 5595 5594 5592 5590 5589 5588 5587 5585 5584 5583 5581 5580 5578 5576 5573 5571 5568 5566 5564 5561 5559 5556 5553 5550 5547 5544 5540 5536 5532 5527 5523 5519